Location: Chervonnoye
(48.6000°N, 34.4000°E)
Time: 08:06:54
(UTC+00:00)

Nadezhda 1 Rocket - Pass Details

Date: 21 April 2021
Orbit: 940 x 1006 km, 83.0° (Epoch: 13 May)

Event Time Altitude Azimuth Distance (km) Brightness Sun altitude
Exits shadow 21:55:45 72° 115° (ESE) 1,056 4.0 -29.1°
Maximum altitude 21:56:00 73° 96° (E) 1,051 4.0 -29.1°
Drops below altitude 10° 22:02:22 10° 12° (NNE) 2,778 7.3 -29.0°
Sets 22:04:54 0° 11° (N) 3,725 8.3 -29.0°
